Altus, OK

3:22 AM CST on February 07, 2016 (GMT -0600)
Altus Municipal

Weather History for KAXS - February, 2014

Change the Weather History Date:

Tuesday, February 18, 2014

  Actual Average (KLTS) Record (KLTS)
Temperature  
Mean Temperature 58 °F -  
Max Temperature 83 °F 54 °F 83 °F (2014)
Min Temperature 33 °F 33 °F 23 °F (2015)
Degree Days  
Heating Degree Days 7    
Growing Degree Days 8 (Base 50)    
Moisture  
Dew Point 29 °F    
Average Humidity 41    
Maximum Humidity 74    
Minimum Humidity 11    
Precipitation  
Precipitation 0.00 in - - ()
Sea Level Pressure  
Sea Level Pressure 29.93 in    
Wind  
Wind Speed 6 mph (SSE)    
Max Wind Speed 23 mph    
Max Gust Speed 30 mph    
Visibility 10 miles    
Events      
Averages and records for this station are not official NWS values.
T = Trace of Precipitation, MM = Missing Value Source: NWS Daily Summary

Daily Weather History Graph

Daily Weather History Graph

Search for Another Location

Airport or City:

Trip Planner

Search our weather history database for the weather conditions in past years. The results will help you decide how hot, cold, wet, or windy it might be!

Date:

Astronomy

Feb. 18, 2014 Rise Set
Actual Time 7:19 AM CST 6:23 PM CST
Civil Twilight 6:53 AM CST 6:49 PM CST
Nautical Twilight 6:24 AM CST 7:18 PM CST
Astronomical Twilight 5:55 AM CST 7:47 PM CST
Moon 10:06 PM CST (2/18) 9:03 AM CST (2/18)
Length of Visible Light 11h 55m
Length of Day
11h 03m
Waning Gibbous, 87% of the Moon is Illuminated
Feb 18
Waning Gibbous
Feb 22
Last Quarter
Mar 1
New
Mar 8
First Quarter
Mar 16
Full

Hourly Weather History & Observations

Time (CST) Temp. Windchill Dew Point Humidity Pressure Visibility Wind Dir Wind Speed Gust Speed Precip Events Conditions
12:15 AM 42.6 °F 39.9 °F 25.5 °F 51% 30.12 in 10.0 mi South 4.6 mph - N/A   Clear
12:35 AM 42.3 °F 40.5 °F 25.3 °F 51% 30.11 in 10.0 mi South 3.5 mph - N/A   Clear
12:55 AM 43.0 °F 41.3 °F 25.9 °F 51% 30.10 in 10.0 mi SSW 3.5 mph - N/A   Clear
1:15 AM 40.3 °F - 26.4 °F 58% 30.10 in 10.0 mi Calm Calm - N/A   Clear
1:35 AM 40.1 °F - 27.0 °F 59% 30.10 in 10.0 mi Calm Calm - N/A   Clear
1:55 AM 39.6 °F - 27.0 °F 61% 30.09 in 10.0 mi Calm Calm - N/A   Clear
2:20 AM 39.7 °F 37.6 °F 26.2 °F 59% 30.07 in 10.0 mi SSE 3.5 mph - N/A   Clear
2:35 AM 37.2 °F - 26.4 °F 65% 30.07 in 10.0 mi Calm Calm - N/A   Clear
2:55 AM 34.7 °F - 24.8 °F 67% 30.06 in 10.0 mi Calm Calm - N/A   Clear
3:15 AM 35.6 °F - 25.5 °F 67% 30.05 in 10.0 mi Calm Calm - N/A   Clear
3:35 AM 37.6 °F - 25.5 °F 62% 30.04 in 10.0 mi Calm Calm - N/A   Clear
4:00 AM 37.2 °F - 25.2 °F 62% 30.02 in 10.0 mi Calm Calm - N/A   Clear
4:20 AM 35.6 °F - 25.3 °F 66% 30.02 in 10.0 mi Calm Calm - N/A   Clear
4:35 AM 34.7 °F - 25.0 °F 68% 30.02 in 10.0 mi Calm Calm - N/A   Clear
4:55 AM 37.4 °F - 25.0 °F 61% 30.02 in 10.0 mi Calm Calm - N/A   Clear
5:15 AM 35.8 °F - 24.8 °F 64% 30.01 in 10.0 mi Calm Calm - N/A   Clear
5:40 AM 34.2 °F 29.0 °F 25.5 °F 71% 30.00 in 10.0 mi SSE 5.8 mph - N/A   Clear
5:55 AM 35.1 °F 31.0 °F 24.8 °F 66% 30.01 in 10.0 mi South 4.6 mph - N/A   Clear
6:20 AM 37.0 °F 34.5 °F 25.5 °F 63% 30.00 in 10.0 mi SE 3.5 mph - N/A   Clear
6:35 AM 35.2 °F - 25.3 °F 67% 30.00 in 10.0 mi Calm Calm - N/A   Clear
7:00 AM 37.2 °F 34.7 °F 25.5 °F 63% 30.01 in 10.0 mi SSE 3.5 mph - N/A   Clear
7:20 AM 37.9 °F 32.7 °F 25.2 °F 60% 30.00 in 10.0 mi South 6.9 mph - N/A   Clear
7:35 AM 33.1 °F 26.9 °F 25.7 °F 74% 29.99 in 10.0 mi South 6.9 mph - N/A   Clear
7:55 AM 35.4 °F 30.5 °F 27.1 °F 72% 30.00 in 10.0 mi SSE 5.8 mph - N/A   Clear
8:20 AM 40.3 °F 36.3 °F 29.7 °F 66% 30.00 in 10.0 mi SE 5.8 mph - N/A   Clear
8:35 AM 41.7 °F 36.7 °F 30.6 °F 65% 30.00 in 10.0 mi SE 8.1 mph - N/A   Clear
8:55 AM 42.8 °F 39.3 °F 31.5 °F 64% 30.01 in 10.0 mi ESE 5.8 mph - N/A   Clear
9:15 AM 45.1 °F 40.8 °F 31.8 °F 60% 30.00 in 10.0 mi SSE 8.1 mph - N/A   Clear
9:35 AM 50.2 °F - 29.8 °F 46% 30.00 in 10.0 mi SSE 8.1 mph - N/A   Clear
9:55 AM 52.3 °F - 29.1 °F 41% 29.99 in 10.0 mi South 9.2 mph - N/A   Clear
10:15 AM 54.1 °F - 29.3 °F 39% 29.98 in 10.0 mi SSE 10.4 mph - N/A   Clear
10:35 AM 54.5 °F - 28.0 °F 36% 29.97 in 10.0 mi South 10.4 mph - N/A   Clear
10:55 AM 58.8 °F - 28.0 °F 31% 29.97 in 10.0 mi SSW 12.7 mph 17.3 mph N/A   Clear
11:15 AM 61.5 °F - 27.1 °F 27% 29.95 in 10.0 mi SSW 17.3 mph - N/A   Clear
11:35 AM 62.6 °F - 27.9 °F 27% 29.94 in 10.0 mi SSW 16.1 mph - N/A   Clear
11:55 AM 63.5 °F - 28.4 °F 27% 29.92 in 10.0 mi SSW 18.4 mph 23.0 mph N/A   Clear
12:15 PM 65.7 °F - 28.6 °F 25% 29.92 in 10.0 mi SSW 12.7 mph - N/A   Clear
12:35 PM 67.6 °F - 28.8 °F 23% 29.89 in 10.0 mi SSW 19.6 mph - N/A   Clear
12:55 PM 70.9 °F - 29.3 °F 21% 29.87 in 10.0 mi SW 17.3 mph - N/A   Clear
1:15 PM 73.2 °F - 29.3 °F 20% 29.86 in 10.0 mi SW 17.3 mph - N/A   Clear
1:35 PM 75.6 °F - 30.2 °F 19% 29.84 in 10.0 mi SW 17.3 mph 24.2 mph N/A   Clear
1:55 PM 76.6 °F - 30.6 °F 18% 29.83 in 10.0 mi SW 12.7 mph 21.9 mph N/A   Clear
2:15 PM 78.3 °F - 30.9 °F 18% 29.82 in 10.0 mi SSW 11.5 mph - N/A   Clear
2:35 PM 80.1 °F - 31.1 °F 17% 29.82 in 10.0 mi WSW 17.3 mph 24.2 mph N/A   Clear
2:55 PM 80.8 °F - 31.1 °F 16% 29.80 in 10.0 mi SW 11.5 mph 17.3 mph N/A   Clear
3:15 PM 82.0 °F - 29.1 °F 15% 29.80 in 10.0 mi SW 12.7 mph 20.7 mph N/A   Clear
3:35 PM 83.3 °F - 27.5 °F 13% 29.80 in 10.0 mi West 11.5 mph 17.3 mph N/A   Clear
3:55 PM 83.5 °F - 25.2 °F 12% 29.80 in 10.0 mi WNW 9.2 mph - N/A   Clear
4:20 PM 83.3 °F - 24.3 °F 11% 29.79 in 10.0 mi West 6.9 mph - N/A   Clear
4:35 PM 82.9 °F - 24.4 °F 12% 29.79 in 10.0 mi WNW 3.5 mph - N/A   Clear
4:55 PM 83.3 °F - 23.7 °F 11% 29.79 in 10.0 mi WNW 4.6 mph - N/A   Clear
5:15 PM 82.8 °F - 24.6 °F 12% 29.79 in 10.0 mi Calm Calm - N/A   Clear
5:35 PM 81.9 °F - 25.2 °F 12% 29.80 in 10.0 mi ESE 5.8 mph - N/A   Clear
6:00 PM 75.2 °F - 36.7 °F 25% 29.80 in 10.0 mi SE 5.8 mph - N/A   Clear
6:15 PM 72.0 °F - 35.8 °F 27% 29.81 in 10.0 mi ESE 9.2 mph - N/A   Clear
6:35 PM 68.4 °F - 36.9 °F 31% 29.82 in 10.0 mi SE 9.2 mph - N/A   Clear
6:55 PM 62.4 °F - 37.4 °F 40% 29.83 in 10.0 mi ESE 6.9 mph - N/A   Clear
7:15 PM 61.3 °F - 38.3 °F 43% 29.85 in 10.0 mi East 8.1 mph - N/A   Clear
7:35 PM 64.6 °F - 36.3 °F 35% 29.85 in 10.0 mi East 9.2 mph - N/A   Clear
7:55 PM 63.7 °F - 36.3 °F 36% 29.85 in 10.0 mi East 10.4 mph - N/A   Clear
8:20 PM 62.1 °F - 35.8 °F 38% 29.86 in 10.0 mi East 8.1 mph - N/A   Clear
8:35 PM 63.0 °F - 35.2 °F 36% 29.86 in 10.0 mi East 10.4 mph - N/A   Clear
8:55 PM 62.8 °F - 35.2 °F 36% 29.87 in 10.0 mi East 9.2 mph - N/A   Clear
9:15 PM 61.3 °F - 35.2 °F 38% 29.87 in 10.0 mi ENE 9.2 mph - N/A   Clear
9:35 PM 62.8 °F - 34.5 °F 35% 29.88 in 10.0 mi ENE 10.4 mph - N/A   Clear
10:00 PM 61.9 °F - 35.2 °F 37% 29.90 in 10.0 mi NNE 8.1 mph - N/A   Clear
10:15 PM 57.0 °F - 35.8 °F 45% 29.90 in 10.0 mi North 8.1 mph - N/A   Clear
10:35 PM 59.4 °F - 34.5 °F 39% 29.91 in 10.0 mi NNE 16.1 mph - N/A   Clear
10:55 PM 65.5 °F - 27.0 °F 23% 29.91 in 10.0 mi NE 23.0 mph - N/A   Clear
11:15 PM 64.8 °F - 26.4 °F 23% 29.91 in 10.0 mi NE 21.9 mph - N/A   Clear
11:40 PM 62.8 °F - 24.6 °F 23% 29.92 in 10.0 mi NE 23.0 mph - N/A   Clear
11:55 PM 62.8 °F - 23.5 °F 22% 29.92 in 10.0 mi NE 21.9 mph 29.9 mph N/A   Clear